SHT21L EGJB-EGLL

Flight info

Callsign SHT21L
Flight time 0h 34m
Altitude 19000
Route ORIST L982 ROXOG
Aircraft A319/M-SDE3FGHIRWY/LB1

Departure

Time 2026-04-22 16:34
Airport Guernsey Airport (EGJB)

Arrival

Time 2026-04-22 17:08
Airport London Heathrow Airport (EGLL)
Time Latitude Longitude Altitude Speed Heading
2026-04-22 16:03 49.43260 -2.59687 345 ft 0 kts 177°
2026-04-22 16:26 49.43283 -2.59689 345 ft 4 kts 179°
2026-04-22 16:26 49.43310 -2.59689 346 ft 4 kts 182°
2026-04-22 16:26 49.43337 -2.59686 345 ft 4 kts 193°
2026-04-22 16:26 49.43359 -2.59671 355 ft 4 kts 244°
2026-04-22 16:27 49.43362 -2.59662 355 ft 0 kts 268°
2026-04-22 16:30 49.43361 -2.59672 355 ft 4 kts 268°
2026-04-22 16:30 49.43349 -2.59773 351 ft 8 kts 258°
2026-04-22 16:30 49.43345 -2.59872 345 ft 11 kts 267°
2026-04-22 16:30 49.43341 -2.59995 344 ft 10 kts 267°
2026-04-22 16:31 49.43338 -2.60115 345 ft 12 kts 268°
2026-04-22 16:31 49.43333 -2.60266 338 ft 15 kts 267°
2026-04-22 16:31 49.43328 -2.60422 332 ft 16 kts 267°
2026-04-22 16:31 49.43324 -2.60564 328 ft 13 kts 267°
2026-04-22 16:32 49.43338 -2.60716 328 ft 17 kts 281°
2026-04-22 16:32 49.43361 -2.60902 323 ft 17 kts 278°
2026-04-22 16:32 49.43360 -2.61105 319 ft 21 kts 267°
2026-04-22 16:32 49.43371 -2.61267 314 ft 15 kts 300°
2026-04-22 16:33 49.43435 -2.61358 312 ft 10 kts 346°
2026-04-22 16:33 49.43466 -2.61328 313 ft 4 kts 65°
2026-04-22 16:33 49.43467 -2.61295 314 ft 12 kts 88°
2026-04-22 16:33 49.43483 -2.60746 325 ft 90 kts 87°
2026-04-22 16:34 49.43512 -2.59476 605 ft 129 kts 85°
2026-04-22 16:34 49.43539 -2.58124 1498 ft 125 kts 86°
2026-04-22 16:34 49.43584 -2.56767 2146 ft 134 kts 87°
2026-04-22 16:34 49.43634 -2.55226 2613 ft 155 kts 89°
2026-04-22 16:35 49.43682 -2.53448 3083 ft 178 kts 90°
2026-04-22 16:35 49.43784 -2.51475 3672 ft 195 kts 81°
2026-04-22 16:35 49.44568 -2.49563 4098 ft 235 kts 47°
2026-04-22 16:35 49.45915 -2.47936 4860 ft 254 kts 43°
2026-04-22 16:36 49.47357 -2.46279 5820 ft 262 kts 41°
2026-04-22 16:36 49.48817 -2.44620 6871 ft 266 kts 40°
2026-04-22 16:36 49.50315 -2.42911 7861 ft 271 kts 40°
2026-04-22 16:36 49.51843 -2.41157 8837 ft 276 kts 39°
2026-04-22 16:37 49.53395 -2.39366 9823 ft 281 kts 38°
2026-04-22 16:37 49.54984 -2.37525 10520 ft 296 kts 38°
2026-04-22 16:37 49.56691 -2.35539 10916 ft 319 kts 38°
2026-04-22 16:37 49.57911 -2.34118 11261 ft 329 kts 38°
2026-04-22 16:38 49.59759 -2.31962 12003 ft 336 kts 37°
2026-04-22 16:38 49.61638 -2.29763 12801 ft 342 kts 37°
2026-04-22 16:38 49.63548 -2.27526 13596 ft 347 kts 36°
2026-04-22 16:38 49.65489 -2.25257 14326 ft 352 kts 36°
2026-04-22 16:39 49.67430 -2.22992 15011 ft 357 kts 35°
2026-04-22 16:39 49.69446 -2.20637 15723 ft 361 kts 35°
2026-04-22 16:39 49.71431 -2.18310 16415 ft 365 kts 35°
2026-04-22 16:39 49.73460 -2.15926 17121 ft 369 kts 34°
2026-04-22 16:40 49.75515 -2.13511 17827 ft 373 kts 34°
2026-04-22 16:40 49.77593 -2.11070 18528 ft 377 kts 34°
2026-04-22 16:40 49.81805 -2.06110 19176 ft 382 kts 33°
2026-04-22 16:41 49.83923 -2.03606 19219 ft 384 kts 33°
2026-04-22 16:41 49.86047 -2.01089 19227 ft 384 kts 33°
2026-04-22 16:41 49.88169 -1.98574 19219 ft 384 kts 33°
2026-04-22 16:41 49.90291 -1.96061 19226 ft 384 kts 33°
2026-04-22 16:42 49.92410 -1.93543 19225 ft 383 kts 33°
2026-04-22 16:42 49.94524 -1.91027 19236 ft 383 kts 33°
2026-04-22 16:42 49.96640 -1.88508 19233 ft 387 kts 33°
2026-04-22 16:42 49.98829 -1.85905 19235 ft 402 kts 33°
2026-04-22 16:43 50.01185 -1.83565 19236 ft 402 kts 24°
2026-04-22 16:43 50.03670 -1.81581 19241 ft 402 kts 24°
2026-04-22 16:43 50.06146 -1.79535 19243 ft 402 kts 25°
2026-04-22 16:43 50.08603 -1.77456 19238 ft 402 kts 25°
2026-04-22 16:44 50.11056 -1.75359 19243 ft 402 kts 25°
2026-04-22 16:44 50.13507 -1.73270 19244 ft 401 kts 25°
2026-04-22 16:44 50.15961 -1.71185 19246 ft 401 kts 25°
2026-04-22 16:44 50.18411 -1.69109 19247 ft 401 kts 25°
2026-04-22 16:45 50.20864 -1.67042 19248 ft 401 kts 25°
2026-04-22 16:45 50.23317 -1.64973 19255 ft 401 kts 25°
2026-04-22 16:45 50.25766 -1.62900 19257 ft 400 kts 25°
2026-04-22 16:45 50.28214 -1.60826 19263 ft 400 kts 25°
2026-04-22 16:46 50.30660 -1.58750 19264 ft 400 kts 25°
2026-04-22 16:46 50.33107 -1.56672 19273 ft 400 kts 25°
2026-04-22 16:46 50.35549 -1.54593 19273 ft 400 kts 25°
2026-04-22 16:46 50.37994 -1.52511 19273 ft 400 kts 25°
2026-04-22 16:47 50.40437 -1.50433 19275 ft 400 kts 25°
2026-04-22 16:47 50.42879 -1.48355 19279 ft 399 kts 25°
2026-04-22 16:47 50.45321 -1.46276 19281 ft 399 kts 25°
2026-04-22 16:47 50.47758 -1.44192 19283 ft 399 kts 25°
2026-04-22 16:48 50.50198 -1.42103 19278 ft 399 kts 25°
2026-04-22 16:48 50.52633 -1.40017 19282 ft 399 kts 25°
2026-04-22 16:48 50.55071 -1.37925 19284 ft 399 kts 25°
2026-04-22 16:48 50.57502 -1.35834 19283 ft 399 kts 25°
2026-04-22 16:49 50.59939 -1.33739 19285 ft 399 kts 25°
2026-04-22 16:49 50.62371 -1.31647 19291 ft 399 kts 25°
2026-04-22 16:49 50.64804 -1.29550 19291 ft 399 kts 25°
2026-04-22 16:49 50.67236 -1.27452 19294 ft 398 kts 25°
2026-04-22 16:50 50.69669 -1.25350 19290 ft 399 kts 25°
2026-04-22 16:50 50.72062 -1.23280 18955 ft 396 kts 26°
2026-04-22 16:50 50.74469 -1.21196 18724 ft 391 kts 26°
2026-04-22 16:50 50.76810 -1.19161 18482 ft 378 kts 26°
2026-04-22 16:51 50.79078 -1.17180 18206 ft 368 kts 26°
2026-04-22 16:51 50.81308 -1.15230 17754 ft 364 kts 26°
2026-04-22 16:51 50.83515 -1.13304 17250 ft 361 kts 26°
2026-04-22 16:51 50.85707 -1.11399 16745 ft 358 kts 27°
2026-04-22 16:52 50.87886 -1.09506 16246 ft 356 kts 27°
2026-04-22 16:52 50.90049 -1.07627 15747 ft 354 kts 28°
2026-04-22 16:52 50.92207 -1.05748 15246 ft 352 kts 29°
2026-04-22 16:52 50.94343 -1.03879 14741 ft 350 kts 30°
2026-04-22 16:53 50.96462 -1.02021 14255 ft 347 kts 30°
2026-04-22 16:53 50.98572 -1.00167 13729 ft 345 kts 31°
2026-04-22 16:53 51.00560 -0.98096 13345 ft 339 kts 41°
2026-04-22 16:53 51.02212 -0.95446 13280 ft 337 kts 50°
2026-04-22 16:54 51.03773 -0.92657 13295 ft 338 kts 50°
2026-04-22 16:54 51.05341 -0.89871 12849 ft 340 kts 50°
2026-04-22 16:54 51.06920 -0.87070 12342 ft 336 kts 50°
2026-04-22 16:54 51.08462 -0.84338 11933 ft 328 kts 50°
2026-04-22 16:55 51.09971 -0.81659 11409 ft 323 kts 50°
2026-04-22 16:55 51.11462 -0.79003 10890 ft 320 kts 50°
2026-04-22 16:55 51.12933 -0.76383 10552 ft 318 kts 49°
2026-04-22 16:55 51.14716 -0.74282 10246 ft 324 kts 28°
2026-04-22 16:56 51.16917 -0.73477 9936 ft 330 kts
2026-04-22 16:56 51.19212 -0.73782 9543 ft 331 kts 356°
2026-04-22 16:56 51.21494 -0.74252 9226 ft 331 kts 356°
2026-04-22 16:56 51.23771 -0.74735 8909 ft 329 kts 356°
2026-04-22 16:57 51.26042 -0.75227 8594 ft 328 kts 356°
2026-04-22 16:57 51.28295 -0.75720 8210 ft 325 kts 356°
2026-04-22 16:57 51.30522 -0.76214 7706 ft 322 kts 356°
2026-04-22 16:57 51.32726 -0.76711 7370 ft 314 kts 356°
2026-04-22 16:58 51.34136 -0.77039 7277 ft 305 kts 356°
2026-04-22 16:58 51.36863 -0.77690 7103 ft 285 kts 356°
2026-04-22 16:58 51.38767 -0.78171 6979 ft 270 kts 356°
2026-04-22 16:58 51.40578 -0.78643 6855 ft 257 kts 356°
2026-04-22 16:59 51.42303 -0.79095 6713 ft 246 kts 356°
2026-04-22 16:59 51.43975 -0.79540 6380 ft 242 kts 356°
2026-04-22 16:59 51.45606 -0.80004 6063 ft 241 kts 353°
2026-04-22 16:59 51.47122 -0.81266 5685 ft 250 kts 321°
2026-04-22 17:00 51.48315 -0.83301 5289 ft 251 kts 316°
2026-04-22 17:00 51.50647 -0.87426 4548 ft 247 kts 317°
2026-04-22 17:00 51.51970 -0.88990 4166 ft 234 kts 346°
2026-04-22 17:01 51.53519 -0.89157 3963 ft 213 kts 21°
2026-04-22 17:01 51.54688 -0.87967 3835 ft 194 kts 56°
2026-04-22 17:01 51.55086 -0.86018 3704 ft 183 kts 93°
2026-04-22 17:01 51.54589 -0.84177 3489 ft 187 kts 130°
2026-04-22 17:02 51.53403 -0.83249 3200 ft 201 kts 168°
2026-04-22 17:02 51.51982 -0.83253 3007 ft 204 kts 172°
2026-04-22 17:02 51.50707 -0.82525 2973 ft 191 kts 134°
2026-04-22 17:02 51.49826 -0.80976 2976 ft 187 kts 122°
2026-04-22 17:03 51.49052 -0.79342 2994 ft 187 kts 121°
2026-04-22 17:03 51.48288 -0.77698 2985 ft 177 kts 121°
2026-04-22 17:03 51.47730 -0.76025 2991 ft 167 kts 102°
2026-04-22 17:03 51.47615 -0.74208 2996 ft 163 kts 87°
2026-04-22 17:04 51.47627 -0.72392 2995 ft 163 kts 87°
2026-04-22 17:04 51.47638 -0.70564 2875 ft 164 kts 87°
2026-04-22 17:04 51.47648 -0.68738 2682 ft 163 kts 87°
2026-04-22 17:04 51.47659 -0.66924 2473 ft 163 kts 87°
2026-04-22 17:05 51.47669 -0.65106 2257 ft 163 kts 88°
2026-04-22 17:05 51.47679 -0.63284 2049 ft 164 kts 88°
2026-04-22 17:05 51.47688 -0.61478 1859 ft 161 kts 88°
2026-04-22 17:05 51.47696 -0.59724 1603 ft 153 kts 87°
2026-04-22 17:06 51.47704 -0.58075 1388 ft 142 kts 87°
2026-04-22 17:06 51.47711 -0.56588 1203 ft 124 kts 87°
2026-04-22 17:06 51.47717 -0.55277 1024 ft 113 kts 87°
2026-04-22 17:06 51.47723 -0.54033 862 ft 110 kts 88°
2026-04-22 17:07 51.47729 -0.52804 697 ft 110 kts 89°
2026-04-22 17:07 51.47742 -0.51582 528 ft 109 kts 89°
2026-04-22 17:07 51.47749 -0.50358 357 ft 112 kts 91°
2026-04-22 17:07 51.47754 -0.49127 206 ft 110 kts 91°
2026-04-22 17:08 51.47756 -0.47914 100 ft 104 kts 91°
2026-04-22 17:08 51.47756 -0.46895 91 ft 86 kts 90°
2026-04-22 17:08 51.47759 -0.46040 88 ft 54 kts 89°
2026-04-22 17:08 51.47760 -0.45634 85 ft 20 kts 89°
2026-04-22 17:09 51.47703 -0.45472 86 ft 18 kts 166°
2026-04-22 17:09 51.47632 -0.45468 87 ft 4 kts 184°
2026-04-22 17:09 51.47624 -0.45469 87 ft 1 kts 183°
2026-04-22 17:09 51.47577 -0.45469 87 ft 9 kts 180°
2026-04-22 17:10 51.47511 -0.45503 89 ft 11 kts 243°
2026-04-22 17:10 51.47507 -0.45631 87 ft 13 kts 270°
2026-04-22 17:10 51.47516 -0.45793 87 ft 16 kts 277°
2026-04-22 17:10 51.47517 -0.45968 87 ft 17 kts 269°
2026-04-22 17:11 51.47516 -0.46140 87 ft 9 kts 269°
2026-04-22 17:11 51.47516 -0.46236 87 ft 15 kts 270°
2026-04-22 17:11 51.47515 -0.46431 87 ft 19 kts 270°
2026-04-22 17:11 51.47515 -0.46642 87 ft 17 kts 270°
2026-04-22 17:12 51.47494 -0.46824 89 ft 18 kts 266°
2026-04-22 17:12 51.47492 -0.47029 87 ft 18 kts 270°
2026-04-22 17:12 51.47491 -0.47220 87 ft 15 kts 269°
2026-04-22 17:12 51.47491 -0.47413 87 ft 18 kts 269°
2026-04-22 17:13 51.47490 -0.47591 87 ft 14 kts 270°
2026-04-22 17:13 51.47489 -0.47760 87 ft 14 kts 269°
2026-04-22 17:13 51.47489 -0.47884 87 ft 8 kts 269°
2026-04-22 17:13 51.47489 -0.47909 87 ft 0 kts 270°
2026-04-22 17:16 51.47489 -0.47910 87 ft 1 kts 270°
2026-04-22 17:16 51.47489 -0.47930 87 ft 3 kts 270°
2026-04-22 17:16 51.47489 -0.47986 87 ft 7 kts 269°
2026-04-22 17:17 51.47488 -0.48083 87 ft 11 kts 270°
2026-04-22 17:17 51.47488 -0.48218 89 ft 14 kts 270°
2026-04-22 17:17 51.47487 -0.48383 87 ft 16 kts 270°
2026-04-22 17:17 51.47487 -0.48572 88 ft 17 kts 269°
2026-04-22 17:18 51.47485 -0.48746 87 ft 12 kts 269°
2026-04-22 17:18 51.47485 -0.48855 87 ft 11 kts 271°
2026-04-22 17:18 51.47486 -0.48950 87 ft 6 kts 237°
2026-04-22 17:18 51.47451 -0.48956 87 ft 6 kts 177°
2026-04-22 17:19 51.47418 -0.48956 87 ft 1 kts 180°
2026-04-22 17:19 51.47415 -0.48956 87 ft 0 kts 180°